Weather in Gandhinagar

India     23°14′14″N   72°39′39″E
temp.,
°C
wind,
m/s
gust,
m/s
humid.,
%
clouds,
%
prec.,
mm/h
press.,
hPa
HPBL,
m
20 april, tue
tue2023:30+30wsw491946 0.0 1008193
02:30+28w51045100 0.0 1006270
05:30+27wnw4952100 0.0 1007343
08:30+30w5643100 0.0 1008587
11:30+38w6717100 0.0 10081845
14:30+39w7814100 0.0 10052822
17:30+38w8914100 0.0 10043066
20:30+32wnw41019100 0.0 1006214
21 april, wed
wed2123:30+30w4935100 0.0 1007246
02:30+27nw3947100 0.0 1007280
05:30+26nw3849100 0.0 1008221
08:30+29wnw4539100 0.0 1011669
11:30+36wsw4619100 0.0 10102180
14:30+39wsw5711100 0.0 10073382
17:30+37wnw6711100 0.0 10062560
20:30+31nw3420100 0.0 100850
22 april, thu
thu2223:30+29wsw3326100 0.0 100954
02:30+26w2255100 0.0 100835
05:30+24nw2266100 0.0 100932
08:30+30wnw464610 0.0 1011548
11:30+38wnw431626 0.0 10102597
14:30+41wsw541035 0.0 10073564
17:30+39w74100 0.0 10063464
20:30+32w48130 0.0 1008123
23 april, fri
fri2323:30+30wnw48120 0.0 1008137
02:30+25wnw47420 0.0 1007127
05:30+24nw41066100 0.0 1008219
08:30+29nw35430 0.0 1010526
11:30+38w45150 0.0 10092212
14:30+41wsw55981 0.0 10053494
17:30+40wnw55940 0.0 10053460
20:30+33sw231346 0.0 100740
24 april, sat
sat2423:30+29wsw332891 0.0 100842
02:30+27w4944100 0.0 1007190
05:30+25wnw4967100 0.0 1008200
08:30+30wnw454588 0.0 1010594
11:30+37w3418100 0.0 10091561
14:30+42wsw54100 0.0 10063890
17:30+40w6490 0.0 10053608
20:30+34wnw45140 0.0 100763